| time (UTC) | temp F | wind direction | speed MPH | gust MPH | rain 1hr in | rain 24hr in | rain mn in | humidity % | barometer mb |
| 20260903100007 | 58 | 212 | 12.0 | 21.0 | 0.00 | 0.00 | 0.00 | 64 | 998.5 |
| 20260903094515 | 57 | 197 | 11.0 | 24.0 | 0.00 | 0.00 | 0.00 | 66 | 998.6 |
| 20260903093004 | 56 | 207 | 10.0 | 15.0 | 0.00 | 0.00 | 0.00 | 68 | 998.8 |
| 20260903091503 | 55 | 201 | 7.0 | 12.0 | 0.00 | 0.00 | 0.00 | 73 | 998.9 |
| 20260903090001 | 54 | 190 | 4.0 | 11.0 | 0.00 | 0.00 | 0.00 | 75 | 998.8 |
| 20260903084558 | 55 | 185 | 5.0 | 9.0 | 0.00 | 0.00 | 0.00 | 74 | 998.6 |
| 20260903083059 | 56 | 203 | 10.0 | 15.0 | 0.00 | 0.00 | 0.00 | 73 | 998.6 |
| 20260903081554 | 55 | 209 | 9.0 | 16.0 | 0.00 | 0.00 | 0.00 | 74 | 998.5 |
| 20260903080051 | 56 | 213 | 9.0 | 20.0 | 0.00 | 0.00 | 0.00 | 74 | 998.5 |
| 20260903074559 | 56 | 229 | 12.0 | 19.0 | 0.00 | 0.00 | 0.00 | 74 | 998.3 |
| 20260903073048 | 56 | 227 | 12.0 | 18.0 | 0.00 | 0.00 | 0.00 | 74 | 998.2 |
| 20260903071551 | 56 | 202 | 11.0 | 19.0 | 0.00 | 0.00 | 0.00 | 74 | 998.1 |
| 20260903070044 | 56 | 190 | 9.0 | 17.0 | 0.00 | 0.00 | 0.00 | 72 | 998.2 |
| 20260903064543 | 57 | 204 | 11.0 | 21.0 | 0.00 | 0.00 | 0.00 | 73 | 998.2 |
| 20260903063041 | 57 | 198 | 11.0 | 23.0 | 0.00 | 0.00 | 0.00 | 76 | 998.4 |
| 20260903061549 | 56 | 190 | 13.0 | 21.0 | 0.00 | 0.00 | 0.00 | 79 | 998.6 |
| 20260903060033 | 55 | 187 | 12.0 | 17.0 | 0.00 | 0.00 | 0.00 | 75 | 997.9 |
| 20260903054542 | 56 | 187 | 8.0 | 21.0 | 0.00 | 0.00 | 0.00 | 70 | 998.3 |
| 20260903053055 | 55 | 183 | 8.0 | 13.0 | 0.00 | 0.00 | 0.00 | 72 | 998.6 |
| 20260903051532 | 55 | 168 | 7.0 | 13.0 | 0.00 | 0.00 | 0.00 | 73 | 998.9 |
| 20260903050031 | 55 | 170 | 6.0 | 11.0 | 0.00 | 0.00 | 0.00 | 73 | 999.0 |
| 20260903044533 | 56 | 190 | 6.0 | 10.0 | 0.00 | 0.00 | 0.00 | 72 | 999.3 |
| 20260903043030 | 57 | 190 | 5.0 | 10.0 | 0.00 | 0.00 | 0.00 | 69 | 999.2 |
| 20260903041531 | 59 | 216 | 7.0 | 16.0 | 0.00 | 0.00 | 0.00 | 66 | 999.1 |
| 20260903040029 | 61 | 197 | 13.0 | 21.0 | 0.00 | 0.00 | 0.00 | 63 | 998.8 |
| 20260903034528 | 64 | 223 | 17.0 | 34.0 | 0.00 | 0.00 | 0.00 | 61 | 998.6 |
| 20260903033027 | 62 | 158 | 6.0 | 8.0 | 0.00 | 0.00 | 0.00 | 63 | 997.6 |
| 20260903031527 | 64 | 165 | 2.0 | 6.0 | 0.00 | 0.00 | 0.00 | 63 | 997.4 |
| 20260903030037 | 64 | 171 | 2.0 | 6.0 | 0.00 | 0.00 | 0.00 | 58 | 997.4 |
| 20260903024537 | 66 | 221 | 0.0 | 2.0 | 0.00 | 0.00 | 0.00 | 54 | 997.3 |
| 20260903023026 | 67 | 221 | 2.0 | 9.0 | 0.00 | 0.00 | 0.00 | 53 | 997.1 |
| 20260903021531 | 67 | 240 | 8.0 | 17.0 | 0.00 | 0.00 | 0.00 | 53 | 997.9 |
| 20260903020027 | 67 | 237 | 5.0 | 11.0 | 0.00 | 0.00 | 0.00 | 54 | 998.5 |
| 20260903014523 | 68 | 196 | 10.0 | 24.0 | 0.00 | 0.00 | 0.00 | 53 | 999.1 |
| 20260903013024 | 68 | 205 | 12.0 | 26.0 | 0.00 | 0.00 | 0.00 | 53 | 999.1 |
| 20260903011537 | 70 | 215 | 21.0 | 38.0 | 0.00 | 0.00 | 0.00 | 49 | 999.2 |
| 20260903010122 | 74 | 207 | 19.0 | 36.0 | 0.00 | 0.00 | 0.00 | 41 | 998.6 |
| 20260903004529 | 78 | 205 | 25.0 | 44.0 | 0.00 | 0.00 | 0.00 | 34 | 998.1 |
| 20260903003021 | 81 | 188 | 8.0 | 14.0 | 0.00 | 0.00 | 0.00 | 31 | 996.9 |
| 20260903001520 | 81 | 150 | 8.0 | 15.0 | 0.00 | 0.00 | 0.00 | 31 | 996.8 |
| 20260903000018 | 82 | 165 | 11.0 | 17.0 | 0.00 | 0.00 | 0.00 | 30 | 996.7 |
| 20260902234520 | 83 | 144 | 5.0 | 12.0 | 0.00 | 0.00 | 0.00 | 30 | 996.5 |
| 20260902233028 | 84 | 175 | 9.0 | 14.0 | 0.00 | 0.00 | 0.00 | 29 | 996.3 |
| 20260902231518 | 83 | 188 | 9.0 | 13.0 | 0.00 | 0.00 | 0.00 | 30 | 996.2 |
| 20260902230015 | 82 | 182 | 5.0 | 10.0 | 0.00 | 0.00 | 0.00 | 32 | 996.3 |
| 20260902224514 | 82 | 163 | 6.0 | 15.0 | 0.00 | 0.00 | 0.00 | 32 | 996.6 |
| 20260902223013 | 83 | 208 | 6.0 | 11.0 | 0.00 | 0.00 | 0.00 | 31 | 996.8 |
| 20260902221516 | 84 | 160 | 6.0 | 14.0 | 0.00 | 0.00 | 0.00 | 29 | 996.9 |
| 20260902220010 | 84 | 164 | 10.0 | 15.0 | 0.00 | 0.00 | 0.00 | 30 | 996.9 |
| 20260902214505 | 83 | 163 | 7.0 | 11.0 | 0.00 | 0.00 | 0.00 | 33 | 997.2 |
| 20260902213003 | 82 | 171 | 8.0 | 13.0 | 0.00 | 0.00 | 0.00 | 31 | 997.3 |
| 20260902211502 | 83 | 160 | 10.0 | 14.0 | 0.00 | 0.00 | 0.00 | 32 | 997.5 |
| 20260902204557 | 81 | 196 | 6.0 | 11.0 | 0.00 | 0.00 | 0.00 | 34 | 997.8 |
| 20260902203056 | 81 | 200 | 7.0 | 14.0 | 0.00 | 0.00 | 0.00 | 33 | 997.8 |
| 20260902201619 | 80 | 189 | 4.0 | 12.0 | 0.00 | 0.00 | 0.00 | 33 | 998.0 |
| 20260902194548 | 81 | 32 | 2.0 | 4.0 | 0.00 | 0.00 | 0.00 | 39 | 998.4 |
| 20260902193045 | 78 | 34 | 2.0 | 5.0 | 0.00 | 0.00 | 0.00 | 46 | 998.7 |
| 20260902191545 | 78 | 40 | 2.0 | 5.0 | 0.00 | 0.00 | 0.00 | 45 | 998.8 |
| 20260902190040 | 76 | 43 | 3.0 | 6.0 | 0.00 | 0.00 | 0.00 | 44 | 999.2 |
| 20260902184537 | 73 | 42 | 3.0 | 7.0 | 0.00 | 0.00 | 0.00 | 47 | 999.3 |
| 20260902183044 | 72 | 45 | 4.0 | 6.0 | 0.00 | 0.00 | 0.00 | 49 | 999.3 |
| 20260902181534 | 73 | 44 | 4.0 | 6.0 | 0.00 | 0.00 | 0.00 | 45 | 999.4 |
| 20260902180033 | 73 | 41 | 4.0 | 8.0 | 0.00 | 0.00 | 0.00 | 47 | 999.5 |
| 20260902174531 | 72 | 30 | 4.0 | 9.0 | 0.00 | 0.00 | 0.00 | 53 | 999.6 |
| 20260902173031 | 71 | 355 | 3.0 | 6.0 | 0.00 | 0.00 | 0.00 | 51 | 999.6 |
| 20260902171530 | 72 | 340 | 2.0 | 4.0 | 0.00 | 0.00 | 0.00 | 50 | 999.6 |
| 20260902170028 | 72 | 335 | 3.0 | 6.0 | 0.00 | 0.00 | 0.00 | 54 | 999.9 |
| 20260902164526 | 71 | 246 | 2.0 | 5.0 | 0.00 | 0.00 | 0.00 | 55 | 999.8 |
| 20260902163024 | 68 | 208 | 0.0 | 0.0 | 0.00 | 0.00 | 0.00 | 62 | 1000.1 |
| 20260902161521 | 66 | 207 | 0.0 | 0.0 | 0.00 | 0.00 | 0.00 | 59 | 1000.3 |
| 20260902160009 | 64 | 206 | 0.0 | 0.0 | 0.00 | 0.00 | 0.00 | 62 | 1000.6 |
| 20260902154506 | 64 | 206 | 0.0 | 0.0 | 0.00 | 0.00 | 0.00 | 64 | 1000.7 |
| 20260902153005 | 64 | 292 | 2.0 | 4.0 | 0.00 | 0.00 | 0.00 | 63 | 1000.5 |
| 20260902151507 | 66 | 289 | 0.0 | 0.0 | 0.00 | 0.00 | 0.00 | 57 | 1000.6 |
| 20260902150002 | 65 | 289 | 0.0 | 0.0 | 0.00 | 0.00 | 0.00 | 61 | 1000.6 |
| 20260902144601 | 63 | 289 | 0.0 | 3.0 | 0.00 | 0.00 | 0.00 | 64 | 1000.8 |
| 20260902143054 | 60 | 289 | 1.0 | 3.0 | 0.00 | 0.00 | 0.00 | 69 | 1000.8 |
| 20260902141550 | 57 | 290 | 2.0 | 5.0 | 0.00 | 0.00 | 0.00 | 77 | 1001.0 |
| 20260902140046 | 54 | 293 | 0.0 | 1.0 | 0.00 | 0.00 | 0.00 | 82 | 1001.1 |
| 20260902134542 | 51 | 293 | 1.0 | 3.0 | 0.00 | 0.00 | 0.00 | 85 | 1001.3 |
| 20260902133045 | 49 | 293 | 0.0 | 3.0 | 0.00 | 0.00 | 0.00 | 86 | 1001.3 |
| 20260902131541 | 48 | 293 | 0.0 | 3.0 | 0.00 | 0.00 | 0.00 | 86 | 1001.3 |
| 20260902130030 | 48 | 293 | 2.0 | 4.0 | 0.00 | 0.00 | 0.00 | 85 | 1001.4 |
| 20260902124531 | 49 | 293 | 0.0 | 0.0 | 0.00 | 0.00 | 0.00 | 83 | 1001.1 |
| 20260902123024 | 50 | 293 | 0.0 | 3.0 | 0.00 | 0.00 | 0.00 | 82 | 1001.2 |
| 20260902121521 | 51 | 293 | 0.0 | 3.0 | 0.00 | 0.00 | 0.00 | 81 | 1001.3 |
| 20260902120019 | 51 | 293 | 0.0 | 2.0 | 0.00 | 0.00 | 0.00 | 81 | 1001.4 |
| 20260902114517 | 51 | 293 | 0.0 | 5.0 | 0.00 | 0.00 | 0.00 | 79 | 1001.7 |
| 20260902113014 | 52 | 293 | 0.0 | 0.0 | 0.00 | 0.00 | 0.00 | 74 | 1001.6 |
| 20260902111511 | 53 | 293 | 0.0 | 0.0 | 0.00 | 0.00 | 0.00 | 73 | 1001.7 |
| 20260902110008 | 54 | 293 | 0.0 | 5.0 | 0.00 | 0.00 | 0.00 | 70 | 1001.7 |
| 20260902104504 | 56 | 283 | 0.0 | 4.0 | 0.00 | 0.00 | 0.00 | 66 | 1001.7 |
| 20260902103107 | 58 | 283 | 5.0 | 8.0 | 0.00 | 0.00 | 0.00 | 65 | 1001.6 |
| 20260902101601 | 59 | 290 | 1.0 | 5.0 | 0.00 | 0.00 | 0.00 | 65 | 1001.6 |